Flag for Bolivia Weather past 2 weeks in Potosi, Bolivia

Now
52 °F

Passing clouds.


Feels Like: 52 °F
Forecast: 31 / 54 °F
Wind: No wind

Location: Cochabamba Airport

Current Time: Sep 15, 2014 at 6:02:50 AM

Latest Report: Sep 15, 2014 at 5:00 AM


Visibility: N/A

Pressure: 30.33 "Hg

Humidity: 67%

Dew point: 41 °F

Location of PotosiLocation

Historic Weather in Potosi — Graph

°F

Potosi temperature yesterday

Maximum temperature yesterday: 81 °F (at 3:00 PM)
Minimum temperature yesterday: 48 °F (at 6:00 AM)
Average temperature yesterday: 65 °F

Past Weeks' High & Low Weather Summary

 TemperatureHumidityPressure
High86 °F (Sep 10, 2:00 PM)100% (Sep 6, 3:00 AM)30.42 "Hg (Sep 6, 3:00 AM)
Low46 °F (Sep 3, 6:00 AM)10% (Sep 10, 2:00 PM)30.01 "Hg (Sep 10, 4:00 PM)
Average64 °F49%30.25 "Hg
* Reported Aug 31 4:00 AM — Sep 15 4:00 AM, Potosi, Weather by CustomWeather, © 2014

Note: Actual official high and low records may vary slightly from our data, if they occured in-between our weather recording intervals... More about our weather records

Advertising

Potosi weather history for previous 24 hours

 ConditionsComfort  
Time TempWeatherWind HumidityBarometerVisibility
4:00 AM
Sep 15
54 °FClear.No wind63%30.33 "HgN/A
3:00 AM55 °FClear.No wind59%30.33 "HgN/A
2:00 AM55 °FPassing clouds.No wind59%30.33 "HgN/A
1:00 AM61 °FPassing clouds.No wind52%30.33 "HgN/A
12:00 AM61 °FPassing clouds.No wind52%30.33 "HgN/A
11:00 PM
Sep 14
64 °FPassing clouds.10 mph46%30.30 "HgN/A
10:00 PM64 °FPassing clouds.10 mph46%30.27 "HgN/A
9:00 PM66 °FPassing clouds.No wind37%30.24 "HgN/A
8:00 PM70 °FPassing clouds.9 mph33%30.21 "HgN/A
7:00 PM72 °FPassing clouds.6 mph29%30.18 "HgN/A
6:00 PM68 °FPassing clouds.9 mph18%30.15 "HgN/A
5:00 PM81 °FPassing clouds.No wind15%30.15 "HgN/A
4:00 PM81 °FPassing clouds.7 mph17%30.15 "HgN/A
3:00 PM81 °FPassing clouds.12 mph15%30.24 "HgN/A
2:00 PM79 °FPassing clouds.12 mph18%30.24 "HgN/A
1:00 PM77 °FPassing clouds.12 mph22%30.27 "HgN/A
12:00 PM75 °FPassing clouds.No wind24%30.30 "HgN/A
11:00 AM72 °FPassing clouds.5 mph31%30.36 "HgN/A
10:00 AM75 °FPassing clouds.No wind29%30.36 "HgN/A
9:00 AM66 °FPassing clouds.No wind43%30.36 "Hg6 mi
8:00 AM59 °FPassing clouds.No wind63%30.36 "Hg3 mi
7:00 AM48 °FScattered clouds.No wind82%30.33 "Hg3 mi
6:00 AM48 °FPassing clouds.No wind82%30.30 "Hg5 mi
Weather by CustomWeather, © 2014

See weather overviewHow to use our weather pages